Terug naar catalogus

COSMOS 2251 DEB

ActiefLEO
NORAD 34911·DEBRIS·🇷🇺 Russia

Gelanceerd Jun 16, 1993 vanaf Plesetsk Cosmodrome

Loading…

Volgende Passages (komende 24 uur)

TLE

VersSource: Space-Track

Epoch: Sep 14, 2026, 12:01 UTC

1 34911U 93036ADG 26257.50077521  .00000434  00000-0  93086-4 0  9999
2 34911  74.0388  79.0192 0082896 135.5957 255.6965 14.59680566926102

Volg COSMOS 2251 DEB in realtime met AllMySat

Download on the App Store